Observations for Trim Patrick St
| Time | AQI | Temp °C | Hum % | Pres Pa | CO μg/m³ | H₂S μg/m³ | NO μg/m³ | NO₂ μg/m³ | O₃ μg/m³ | SO₂ μg/m³ | PM1 μg/m³ | PM2.5 μg/m³ | PM10 μg/m³ |
|---|---|---|---|---|---|---|---|---|---|---|---|---|---|
| Monday 3 August 2026 | |||||||||||||
| 09:59 | 2 | 24.1 | 60 | 75,273 | 0.07 | 0 | 2.75 | 13.61 | 51.64 | 4.06 | 5.43 | 11 | 12.1 |
| 09:58 | 2 | 24 | 61 | 75,456 | 0.09 | 0 | 2.91 | 7.38 | 49.84 | 4.03 | 6.29 | 10.88 | 11.96 |
| 09:57 | 2 | 23.8 | 61 | 75,686 | 0.15 | 0 | 2.78 | 15.06 | 62.15 | 3.92 | 6.29 | 10.93 | 12.02 |
| 09:56 | 2 | 23.7 | 61 | 75,817 | 0.04 | 0 | 2.88 | 13.26 | 46.6 | 3.9 | 6.29 | 10.15 | 11.17 |
| 09:55 | 2 | 23.5 | 62 | 76,002 | 0.03 | 0 | 2.95 | 11.89 | 49.8 | 4.01 | 4.57 | 9.38 | 10.31 |
| 09:54 | 2 | 23.4 | 61 | 76,222 | 0.03 | 0 | 2.88 | 13.21 | 48.72 | 3.63 | 5.43 | 10.18 | 11.2 |
| 09:53 | 2 | 23.3 | 61 | 76,460 | 0.01 | 0 | 3.06 | 9.83 | 47.59 | 3.09 | 4.57 | 10.14 | 11.15 |
| 09:52 | 2 | 23.3 | 61 | 76,792 | 0.02 | 0 | 2.96 | 11.61 | 51.24 | 3.23 | 5.43 | 10.13 | 11.14 |
| 09:51 | 2 | 23.2 | 62 | 77,195 | 0 | 0 | 2.84 | 13 | 47.75 | 4.38 | 5.43 | 10.08 | 11.08 |
| 09:50 | 2 | 23.1 | 62 | 77,538 | 0 | 0 | 2.73 | 13.29 | 47.16 | 4.26 | 6.29 | 10.82 | 11.9 |
| 09:49 | 2 | 23 | 62 | 77,760 | 0 | 0 | 2.71 | 13.74 | 52.1 | 3.62 | 5.43 | 10.11 | 11.12 |
| 09:48 | 2 | 22.9 | 62 | 77,943 | 0 | 0 | 2.26 | 12.36 | 49.08 | 3.87 | 6.29 | 13.01 | 14.31 |
| 09:47 | 2 | 22.8 | 63 | 78,224 | 0 | 0 | 2.29 | 12.66 | 47.76 | 3.36 | 6.29 | 11.51 | 12.66 |
| 09:46 | 2 | 22.7 | 63 | 78,438 | 0 | 0 | 2.64 | 12.28 | 49.44 | 3.36 | 4.57 | 8.56 | 9.41 |
| 09:45 | 2 | 22.6 | 63 | 78,653 | 0 | 0 | 2.19 | 9.62 | 55.5 | 3.7 | 6.29 | 10.75 | 11.83 |
| 09:44 | 2 | 22.5 | 63 | 78,857 | 0 | 0 | 1.9 | 13.31 | 57.48 | 3.36 | 5.43 | 10.77 | 11.84 |
| 09:43 | 2 | 22.5 | 62 | 78,700 | 0 | 0 | 2.45 | 12.03 | 50.53 | 2.94 | 6.29 | 12.27 | 13.49 |
| 09:42 | 2 | 22.4 | 63 | 78,663 | 0 | 0 | 2.21 | 10.17 | 54.39 | 2.92 | 4.57 | 10.02 | 11.03 |
| 09:41 | 2 | 22.5 | 63 | 78,755 | 0 | 0 | 1.94 | 8.99 | 54.92 | 3.03 | 6.29 | 10.03 | 11.03 |
| 09:40 | 2 | 22.5 | 62 | 78,887 | 0 | 0 | 2.02 | 8.51 | 57.86 | 3.57 | 6.29 | 11.54 | 12.7 |